COSMOS 2228 (22286 NORAD) Tracking and Keplerian Element Data

This shows tracking and keplerian element data for the satellite.

Feedback or suggestion? Click here.




ElementValue
Catalog22286
NameCOSMOS 2228
Epoch Orbit65853
Epoch Day12.77475656
Epoch Year2024
RAAN267.3897
Inclination82.5193
Eccentricity0.0021676
Argument of Perigee63.9929
Mean Anonmoly296.3519
Mean Motion14.91224103
Decay Rate3.237E-05
L11 22286U 92094A 24012.77475656 .00003237 00000+0 32182-3 0 9993
L22 22286 82.5193 267.3897 0021676 63.9929 296.3519 14.91224103658531



Live tracking and technical data element details for COSMOS 2228 (NORAD 22286). COSMOS 2228 can be tracked NOW for your location showing map with azimuth and elevation plus other details from your city location.







IsCatalogInMostPopularTable: catalog: 22286, numindb: 440
Update: records affected: 1



GetName: 22286 COSMOS 2228

Hit Count: updated at: Fri, 19 Apr 2024 12:42:48 GMT